Home > Time Zones > World Clock > Weather > Norway > Ås > Past weeks

Flag for Norway Weather past 2 weeks in Ås, Norway

Now
52 °F

Scattered clouds.


Feels Like: 46 °F
Forecast: 52 / 62 °F
Wind: 21 mph from North

Location: Oslo / Fornebu

Current Time: Jul 28, 2015 at 8:30:20 AM

Latest Report: Jul 28, 2015 at 7:50 AM


Visibility: N/A

Pressure: 29.59 "Hg

Humidity: 82%

Dew point: 46 °F

Location of ÅsLocation

Historic Weather in Ås — Graph

°F

Ås temperature yesterday

Maximum temperature yesterday: 59 °F (at 12:50 PM)
Minimum temperature yesterday: 52 °F (at 1:50 AM)
Average temperature yesterday: 54 °F

Past Weeks' High & Low Weather Summary

 TemperatureHumidityPressure
High61 °F (Jul 16, 6:50 PM)100% (Jul 13, 11:20 PM)30.18 "Hg (Jul 13, 11:20 PM)
Low48 °F (Jul 19, 7:20 PM)59% (Jul 15, 1:20 PM)29.36 "Hg (Jul 18, 2:20 PM)
Average54 °F83%29.76 "Hg
* Reported Jul 13 7:20 AM — Jul 28 7:20 AM, Ås, Weather by CustomWeather, © 2015

Note: Actual official high and low records may vary slightly from our data, if they occured in-between our weather recording intervals... More about our weather records

Advertising

Ås weather history for previous 24 hours

 ConditionsComfort  
Time TempWeatherWind HumidityBarometerVisibility
7:20 AM
Tue, Jul 28
52 °FDrizzle. Partly sunny.21 mph88%29.59 "Hg6 mi
6:50 AM52 °FPartly sunny.17 mph88%29.59 "HgN/A
6:20 AM52 °FOvercast.17 mph88%29.59 "HgN/A
5:50 AM52 °FPartly sunny.17 mph88%29.59 "HgN/A
5:20 AM52 °FPassing clouds.20 mph88%29.59 "HgN/A
4:50 AM52 °FPassing clouds.17 mph88%29.59 "HgN/A
4:20 AM52 °FPartly cloudy.17 mph82%29.59 "HgN/A
3:50 AM52 °FPartly cloudy.20 mph88%29.59 "HgN/A
3:20 AM52 °FPassing clouds.18 mph88%29.59 "HgN/A
2:50 AM52 °FPassing clouds.22 mph88%29.59 "HgN/A
2:20 AM52 °FPassing clouds.21 mph88%29.59 "HgN/A
1:50 AM52 °FPassing clouds.20 mph88%29.59 "HgN/A
1:20 AM52 °FPassing clouds.N/A88%29.59 "HgN/A
12:50 AM52 °FPassing clouds.18 mph88%29.59 "HgN/A
12:20 AM52 °FPassing clouds.16 mph88%29.59 "HgN/A
11:50 PM
Mon, Jul 27
52 °FPassing clouds.21 mph88%29.59 "HgN/A
11:20 PM52 °FPassing clouds.18 mph88%29.59 "HgN/A
10:50 PM54 °FPartly sunny.17 mph82%29.59 "HgN/A
10:20 PM54 °FScattered clouds.15 mph82%29.59 "HgN/A
9:50 PM54 °FPartly sunny.15 mph82%29.59 "HgN/A
9:20 PM54 °FPassing clouds.15 mph82%29.59 "HgN/A
8:50 PM54 °FPassing clouds.15 mph82%29.59 "HgN/A
8:20 PM54 °FPassing clouds.15 mph82%29.59 "HgN/A
7:50 PM54 °FPassing clouds.15 mph82%29.59 "HgN/A
7:20 PM54 °FPassing clouds.16 mph82%29.59 "HgN/A
6:50 PM54 °FPassing clouds.16 mph82%29.59 "HgN/A
6:20 PM54 °FScattered clouds.15 mph82%29.59 "HgN/A
5:50 PM54 °FScattered clouds.15 mph82%29.59 "HgN/A
5:20 PM54 °FScattered clouds.14 mph82%29.59 "HgN/A
4:50 PM54 °FPassing clouds.14 mph82%29.59 "HgN/A
4:20 PM54 °FPassing clouds.14 mph82%29.59 "HgN/A
3:50 PM54 °FScattered clouds.12 mph88%29.59 "HgN/A
3:20 PM55 °FPassing clouds.12 mph82%29.59 "HgN/A
2:50 PM55 °FCool.8 mph77%29.59 "HgN/A
2:20 PM57 °FCool.10 mph72%29.56 "HgN/A
1:50 PM57 °FPassing clouds.12 mph72%29.56 "HgN/A
1:20 PM57 °FCool.13 mph72%29.56 "HgN/A
12:50 PM59 °FCool.13 mph68%29.56 "HgN/A
12:20 PM55 °FScattered clouds.13 mph77%29.56 "HgN/A
11:50 AM55 °FPassing clouds.15 mph77%29.56 "HgN/A
11:20 AM55 °FCool.14 mph72%29.56 "HgN/A
10:50 AM55 °FCool.14 mph72%29.56 "HgN/A
10:20 AM54 °FCool.14 mph82%29.56 "HgN/A
9:50 AM54 °FPartly sunny.15 mph77%29.56 "HgN/A
9:20 AM54 °FPartly sunny.15 mph77%29.56 "HgN/A
8:50 AM54 °FPartly sunny.16 mph77%29.56 "HgN/A
8:20 AM52 °FLight rain. Partly sunny.17 mph88%29.56 "HgN/A
Weather by CustomWeather, © 2015

See weather overviewHow to use our weather pages